contact:dominique.lefevre@mio.osupytheas.fr, maurice.libes@osupytheas.fr, didier.mallarino@osupytheas.fr
Project:EMSO http://www.emso-fr.org/EMSO-France
Depth: 2436.0 m
Title:EMSO Ligure Ouest : Data MII capteur AQUADOPP
Date,Latitude,Longitude,X_East,Y_North,Z_Up,Amplitude_X,Amplitude_Y,Amplitude_Z,Batterie,SoundSpeed,Heading,Pitch,Roll,Pressure,TIS,Speed,Direction
, degrees North, degrees East, m.s-1, m.s-1,m.s-1, 1, 1, 1, Volt, m.s-1, degree, degree, degree, dbar, degree_C, m.s-1, degree
2023-04-11T00:04:03,42.805,6.029,0.0,-0.006,-0.036,104.0,103.0,102.0,13.4,1505.2,323.8,-0.8,1.8,2471.387,13.29,0.006,180.0
2023-04-11T00:07:03,42.805,6.029,0.004,-0.011,-0.018,104.0,101.0,102.0,13.4,1505.2,329.3,-0.8,1.8,2471.367,13.29,0.011,160.0
2023-04-11T00:10:03,42.805,6.029,0.005,-0.004,-0.04,105.0,105.0,101.0,13.4,1505.2,342.1,-0.8,1.8,2471.413,13.29,0.006,128.7
2023-04-11T00:13:03,42.805,6.029,0.002,0.0,-0.045,105.0,104.0,102.0,13.3,1505.2,330.6,-0.8,1.8,2471.37,13.29,0.002,90.0
2023-04-11T00:16:03,42.805,6.029,-0.006,-0.006,-0.011,103.0,104.0,102.0,13.3,1505.2,324.5,-0.8,1.8,2471.369,13.29,0.008,225.0
2023-04-11T00:19:03,42.805,6.029,0.001,-0.002,-0.031,105.0,102.0,103.0,13.3,1505.2,343.2,-0.8,1.9,2471.364,13.29,0.002,153.4
2023-04-11T00:22:03,42.805,6.029,-0.002,-0.021,-0.05,104.0,104.0,102.0,13.4,1505.2,335.1,-0.8,1.8,2471.384,13.29,0.021,185.4
2023-04-11T00:25:03,42.805,6.029,-0.01,-0.014,0.0,103.0,102.0,104.0,13.4,1505.2,319.9,-0.8,1.8,2471.384,13.29,0.017,215.5
2023-04-11T00:28:03,42.805,6.029,0.018,-0.014,-0.008,103.0,105.0,104.0,13.4,1505.2,343.6,-0.7,1.8,2471.357,13.29,0.022,127.9
2023-04-11T00:31:03,42.805,6.029,0.023,0.017,0.007,104.0,104.0,103.0,13.3,1505.2,323.7,-0.8,1.8,2471.377,13.29,0.028,53.5
2023-04-11T00:34:03,42.805,6.029,-0.003,-0.015,-0.028,106.0,104.0,102.0,13.4,1505.2,335.0,-0.8,1.8,2471.359,13.29,0.015,191.3
2023-04-11T00:37:03,42.805,6.029,-0.002,-0.024,-0.027,104.0,103.0,101.0,13.4,1505.2,323.7,-0.8,1.8,2471.394,13.29,0.024,184.8
2023-04-11T00:40:03,42.805,6.029,0.028,-0.013,-0.019,104.0,104.0,102.0,13.3,1505.2,332.9,-0.8,1.8,2471.352,13.29,0.03,114.9
2023-04-11T00:43:03,42.805,6.029,-0.022,-0.013,0.0,106.0,103.0,104.0,13.4,1505.2,322.0,-0.8,1.8,2471.327,13.29,0.025,239.4
2023-04-11T00:46:03,42.805,6.029,-0.009,-0.005,-0.034,104.0,103.0,103.0,13.4,1505.2,337.3,-0.8,1.8,2471.364,13.29,0.01,240.9
2023-04-11T00:49:03,42.805,6.029,0.008,-0.027,-0.042,104.0,103.0,102.0,13.4,1505.2,342.8,-0.7,1.8,2471.34,13.29,0.028,163.5
2023-04-11T00:52:03,42.805,6.029,0.009,-0.015,-0.026,105.0,104.0,103.0,13.4,1505.2,322.5,-0.8,1.8,2471.338,13.29,0.017,149.0
2023-04-11T00:55:03,42.805,6.029,0.0,0.022,0.022,106.0,103.0,102.0,13.3,1505.2,329.4,-0.8,1.8,2471.363,13.29,0.022,0.0
2023-04-11T00:58:03,42.805,6.029,0.018,-0.027,-0.028,104.0,104.0,102.0,13.3,1505.2,325.8,-0.7,1.8,2471.31,13.29,0.032,146.3
2023-04-11T01:04:03,42.805,6.029,0.002,0.0,-0.023,106.0,106.0,104.0,13.3,1505.2,330.1,-0.8,1.8,2471.381,13.28,0.002,90.0
2023-04-11T01:07:03,42.805,6.029,0.006,-0.007,-0.015,105.0,106.0,101.0,13.4,1505.2,325.5,-0.7,1.8,2471.381,13.29,0.009,139.4
2023-04-11T01:10:03,42.805,6.029,0.019,-0.022,-0.049,105.0,104.0,103.0,13.3,1505.2,324.1,-0.8,1.8,2471.378,13.29,0.029,139.2
2023-04-11T01:13:03,42.805,6.029,0.022,-0.015,-0.013,103.0,105.0,102.0,13.4,1505.2,340.4,-0.8,1.8,2471.356,13.29,0.026,124.3
2023-04-11T01:16:03,42.805,6.029,-0.008,0.0,-0.018,104.0,104.0,102.0,13.4,1505.2,325.3,-0.8,1.8,2471.303,13.29,0.008,270.0
2023-04-11T01:19:03,42.805,6.029,0.031,-0.003,-0.002,104.0,104.0,102.0,13.4,1505.2,331.5,-0.8,1.8,2471.34,13.29,0.031,95.5
2023-04-11T01:22:03,42.805,6.029,0.016,-0.008,0.03,103.0,104.0,103.0,13.3,1505.2,320.3,-0.8,1.8,2471.362,13.29,0.017,116.6
2023-04-11T01:25:03,42.805,6.029,0.024,-0.027,-0.041,105.0,103.0,102.0,13.4,1505.2,320.7,-0.8,1.8,2471.338,13.29,0.036,138.4
2023-04-11T01:28:03,42.805,6.029,0.008,-0.006,0.001,104.0,103.0,102.0,13.4,1505.2,332.4,-0.8,1.8,2471.345,13.29,0.01,126.9
2023-04-11T01:31:03,42.805,6.029,0.007,-0.012,-0.03,103.0,104.0,102.0,13.3,1505.2,319.7,-0.7,1.8,2471.311,13.29,0.013,149.7
2023-04-11T01:34:03,42.805,6.029,0.011,-0.027,-0.057,105.0,103.0,102.0,13.4,1505.2,335.0,-0.8,1.8,2471.314,13.29,0.029,157.8
2023-04-11T01:37:03,42.805,6.029,0.004,-0.015,-0.028,104.0,104.0,102.0,13.4,1505.2,336.1,-0.8,1.8,2471.322,13.29,0.015,165.1
2023-04-11T01:40:03,42.805,6.029,0.009,-0.028,-0.019,102.0,104.0,101.0,13.4,1505.2,324.4,-0.8,1.8,2471.37,13.29,0.029,162.2
2023-04-11T01:43:03,42.805,6.029,0.017,-0.01,-0.029,105.0,102.0,102.0,13.4,1505.2,328.3,-0.8,1.8,2471.289,13.29,0.019,120.5
2023-04-11T01:46:03,42.805,6.029,-0.002,-0.003,-0.024,102.0,103.0,102.0,13.4,1505.2,333.9,-0.8,1.8,2471.356,13.29,0.003,213.7
2023-04-11T01:49:03,42.805,6.029,0.01,-0.003,0.001,104.0,102.0,101.0,13.4,1505.2,321.7,-0.8,1.8,2471.315,13.29,0.01,106.7
2023-04-11T01:52:03,42.805,6.029,0.02,-0.015,-0.011,105.0,102.0,102.0,13.4,1505.2,323.3,-0.7,1.7,2471.316,13.29,0.025,126.9
2023-04-11T01:55:03,42.805,6.029,0.012,-0.024,-0.036,102.0,104.0,103.0,13.4,1505.2,334.3,-0.8,1.8,2471.357,13.29,0.026,153.4
2023-04-11T01:58:03,42.805,6.029,0.011,-0.024,-0.032,103.0,102.0,102.0,13.3,1505.2,331.4,-0.8,1.8,2471.321,13.29,0.026,155.4
2023-04-11T02:04:03,42.805,6.029,0.008,-0.006,0.0,104.0,104.0,102.0,13.4,1505.2,326.7,-0.8,1.8,2471.399,13.28,0.01,126.9
2023-04-11T02:07:03,42.805,6.029,0.007,-0.004,-0.015,104.0,105.0,101.0,13.3,1505.2,323.8,-0.8,1.8,2471.393,13.29,0.008,119.7
2023-04-11T02:10:03,42.805,6.029,0.013,-0.016,-0.019,104.0,103.0,103.0,13.3,1505.2,324.3,-0.8,1.8,2471.327,13.29,0.02,140.9
2023-04-11T02:13:03,42.805,6.029,0.005,-0.018,-0.015,105.0,103.0,103.0,13.4,1505.2,332.5,-0.7,1.8,2471.325,13.29,0.018,164.5
2023-04-11T02:16:03,42.805,6.029,0.019,-0.035,-0.044,104.0,104.0,103.0,13.4,1505.2,344.2,-0.7,1.8,2471.345,13.29,0.039,151.5
2023-04-11T02:19:03,42.805,6.029,0.02,-0.021,-0.036,104.0,103.0,102.0,13.4,1505.2,336.1,-0.7,1.8,2471.333,13.29,0.028,136.4
2023-04-11T02:22:03,42.805,6.029,0.003,-0.014,-0.02,104.0,103.0,102.0,13.4,1505.2,339.0,-0.8,1.8,2471.321,13.29,0.014,167.9
2023-04-11T02:25:03,42.805,6.029,-0.004,0.0,0.025,104.0,103.0,103.0,13.3,1505.2,328.1,-0.7,1.8,2471.315,13.29,0.004,270.0
2023-04-11T02:28:03,42.805,6.029,-0.008,-0.022,-0.049,104.0,103.0,102.0,13.3,1505.2,326.5,-0.8,1.8,2471.352,13.29,0.023,200.0
2023-04-11T02:31:03,42.805,6.029,0.013,-0.012,-0.038,104.0,103.0,102.0,13.4,1505.2,344.4,-0.8,1.8,2471.316,13.29,0.017,132.7
2023-04-11T02:34:03,42.805,6.029,0.025,0.004,0.01,104.0,103.0,102.0,13.4,1505.2,323.8,-0.8,1.8,2471.331,13.29,0.025,80.9
2023-04-11T02:37:03,42.805,6.029,0.001,-0.028,-0.024,102.0,104.0,101.0,13.4,1505.2,342.8,-0.8,1.8,2471.346,13.29,0.028,178.0
2023-04-11T02:40:03,42.805,6.029,0.0,-0.023,-0.057,104.0,103.0,101.0,13.4,1505.2,334.4,-0.7,1.8,2471.299,13.29,0.023,180.0
2023-04-11T02:43:03,42.805,6.029,-0.003,-0.008,-0.005,106.0,103.0,102.0,13.4,1505.2,336.9,-0.8,1.8,2471.283,13.29,0.008,200.6
2023-04-11T02:46:03,42.805,6.029,0.042,-0.013,0.008,104.0,103.0,102.0,13.4,1505.2,342.8,-0.8,1.8,2471.328,13.29,0.043,107.2
2023-04-11T02:49:03,42.805,6.029,0.015,-0.016,-0.037,103.0,104.0,101.0,13.4,1505.2,324.3,-0.8,1.8,2471.3,13.29,0.021,136.9
2023-04-11T02:52:03,42.805,6.029,0.023,-0.022,-0.003,104.0,103.0,101.0,13.3,1505.2,334.6,-0.8,1.8,2471.331,13.29,0.031,133.7
2023-04-11T02:55:03,42.805,6.029,-0.004,-0.023,-0.066,104.0,104.0,102.0,13.4,1505.2,325.1,-0.8,1.8,2471.303,13.29,0.023,189.9
2023-04-11T02:58:03,42.805,6.029,0.0,-0.026,-0.021,104.0,104.0,101.0,13.3,1505.2,317.3,-0.7,1.8,2471.276,13.29,0.026,180.0
2023-04-11T03:04:03,42.805,6.029,0.011,-0.02,-0.049,104.0,104.0,102.0,13.4,1505.2,333.8,-0.7,1.8,2471.362,13.28,0.022,151.2
2023-04-11T03:07:03,42.805,6.029,0.004,-0.025,-0.009,106.0,103.0,102.0,13.4,1505.2,330.9,-0.8,1.8,2471.314,13.28,0.025,170.9
2023-04-11T03:10:03,42.805,6.029,0.012,-0.025,-0.019,105.0,105.0,102.0,13.3,1505.2,320.1,-0.8,1.8,2471.318,13.29,0.027,154.4
2023-04-11T03:13:03,42.805,6.029,-0.021,-0.029,-0.055,104.0,103.0,102.0,13.4,1505.2,336.3,-0.8,1.8,2471.355,13.29,0.035,215.9
2023-04-11T03:16:03,42.805,6.029,-0.004,-0.014,-0.049,105.0,103.0,103.0,13.4,1505.2,334.8,-0.8,1.8,2471.303,13.29,0.014,195.9
2023-04-11T03:19:03,42.805,6.029,0.021,-0.015,-0.005,105.0,104.0,101.0,13.4,1505.2,318.7,-0.8,1.8,2471.343,13.29,0.025,125.5
2023-04-11T03:22:03,42.805,6.029,-0.005,-0.014,-0.014,104.0,104.0,102.0,13.4,1505.2,343.4,-0.8,1.8,2471.337,13.29,0.014,199.6
2023-04-11T03:25:03,42.805,6.029,-0.008,-0.021,-0.012,106.0,104.0,101.0,13.4,1505.2,330.9,-0.8,1.8,2471.321,13.29,0.022,200.9
2023-04-11T03:28:03,42.805,6.029,0.0,-0.04,-0.022,104.0,104.0,102.0,13.4,1505.2,341.5,-0.8,1.8,2471.32,13.29,0.04,180.0
2023-04-11T03:31:03,42.805,6.029,0.006,-0.011,-0.036,105.0,104.0,102.0,13.4,1505.2,335.0,-0.8,1.8,2471.307,13.29,0.012,151.4
2023-04-11T03:34:03,42.805,6.029,0.004,-0.014,-0.021,106.0,104.0,102.0,13.3,1505.2,323.8,-0.8,1.8,2471.306,13.29,0.014,164.1
2023-04-11T03:37:03,42.805,6.029,-0.009,-0.013,-0.048,104.0,104.0,103.0,13.4,1505.2,343.9,-0.8,1.8,2471.312,13.29,0.015,214.7
2023-04-11T03:40:03,42.805,6.029,0.004,-0.013,-0.039,104.0,104.0,102.0,13.4,1505.2,330.2,-0.8,1.8,2471.301,13.29,0.013,162.9
2023-04-11T03:43:03,42.805,6.029,0.009,-0.008,-0.021,104.0,104.0,102.0,13.3,1505.2,317.4,-0.8,1.8,2471.295,13.29,0.012,131.6
2023-04-11T03:46:03,42.805,6.029,-0.002,0.015,-0.001,104.0,105.0,102.0,13.4,1505.2,326.3,-0.8,1.8,2471.309,13.29,0.015,352.4
2023-04-11T03:49:03,42.805,6.029,0.005,-0.002,0.004,105.0,104.0,103.0,13.3,1505.2,330.9,-0.7,1.8,2471.26,13.29,0.005,111.8
2023-04-11T03:52:03,42.805,6.029,0.011,-0.007,-0.021,104.0,102.0,102.0,13.4,1505.2,325.5,-0.8,1.8,2471.267,13.29,0.013,122.5
2023-04-11T03:55:03,42.805,6.029,-0.01,-0.005,0.014,104.0,104.0,103.0,13.4,1505.2,339.4,-0.8,1.8,2471.271,13.29,0.011,243.4
2023-04-11T03:58:03,42.805,6.029,-0.009,-0.005,-0.042,105.0,102.0,103.0,13.4,1505.2,330.4,-0.7,1.8,2471.318,13.29,0.01,240.9
2023-04-11T04:04:03,42.805,6.029,0.007,-0.011,-0.018,104.0,104.0,102.0,13.3,1505.2,339.8,-0.8,1.8,2471.313,13.28,0.013,147.5
2023-04-11T04:07:03,42.805,6.029,0.015,-0.017,-0.023,104.0,105.0,101.0,13.4,1505.2,329.8,-0.8,1.8,2471.299,13.28,0.022,138.6
2023-04-11T04:10:03,42.805,6.029,0.002,-0.032,-0.047,103.0,105.0,102.0,13.3,1505.2,338.0,-0.7,1.8,2471.294,13.29,0.032,176.4
2023-04-11T04:13:03,42.805,6.029,-0.001,-0.022,-0.01,103.0,104.0,103.0,13.3,1505.2,330.1,-0.8,1.8,2471.272,13.29,0.022,182.6
2023-04-11T04:16:03,42.805,6.029,0.004,-0.008,-0.016,103.0,104.0,102.0,13.3,1505.2,325.3,-0.8,1.8,2471.304,13.29,0.008,153.4
2023-04-11T04:19:03,42.805,6.029,0.023,-0.025,-0.027,105.0,104.0,103.0,13.3,1505.2,317.4,-0.7,1.8,2471.312,13.29,0.033,137.4
2023-04-11T04:22:03,42.805,6.029,0.0,-0.022,-0.024,104.0,104.0,102.0,13.4,1505.2,325.0,-0.8,1.8,2471.251,13.29,0.022,180.0
2023-04-11T04:25:03,42.805,6.029,0.01,-0.024,-0.021,104.0,104.0,101.0,13.3,1505.2,319.6,-0.8,1.8,2471.306,13.29,0.026,157.4
2023-04-11T04:28:03,42.805,6.029,-0.003,-0.012,-0.011,104.0,104.0,102.0,13.4,1505.2,336.6,-0.7,1.8,2471.301,13.29,0.012,194.0
2023-04-11T04:31:03,42.805,6.029,-0.002,-0.014,-0.033,104.0,104.0,101.0,13.3,1505.2,333.4,-0.8,1.8,2471.3,13.29,0.014,188.1
2023-04-11T04:34:03,42.805,6.029,0.006,-0.007,-0.001,104.0,103.0,103.0,13.3,1505.2,328.8,-0.8,1.8,2471.297,13.29,0.009,139.4
2023-04-11T04:37:03,42.805,6.029,0.022,-0.02,-0.029,105.0,103.0,102.0,13.4,1505.2,343.9,-0.8,1.9,2471.271,13.29,0.029,132.3
2023-04-11T04:40:03,42.805,6.029,0.011,-0.013,-0.05,104.0,104.0,102.0,13.4,1505.2,336.8,-0.7,1.8,2471.311,13.29,0.017,139.8
2023-04-11T04:43:03,42.805,6.029,0.008,-0.024,-0.018,104.0,103.0,103.0,13.4,1505.2,335.8,-0.8,1.8,2471.278,13.29,0.025,161.6
2023-04-11T04:46:03,42.805,6.029,0.021,-0.031,-0.024,103.0,103.0,103.0,13.3,1505.2,331.3,-0.8,1.8,2471.272,13.29,0.037,145.9
2023-04-11T04:49:03,42.805,6.029,0.014,-0.027,-0.022,104.0,104.0,103.0,13.4,1505.2,321.9,-0.7,1.8,2471.289,13.29,0.03,152.6
2023-04-11T04:52:03,42.805,6.029,0.006,-0.016,-0.022,103.0,104.0,102.0,13.4,1505.2,335.2,-0.7,1.8,2471.263,13.29,0.017,159.4
2023-04-11T04:55:03,42.805,6.029,-0.009,-0.007,-0.017,104.0,104.0,102.0,13.4,1505.2,337.3,-0.8,1.8,2471.264,13.29,0.011,232.1
2023-04-11T04:58:03,42.805,6.029,-0.01,-0.005,-0.054,106.0,103.0,103.0,13.4,1505.2,334.6,-0.7,1.8,2471.282,13.29,0.011,243.4
2023-04-11T05:04:03,42.805,6.029,-0.002,-0.009,-0.053,105.0,104.0,102.0,13.3,1505.2,326.5,-0.8,1.8,2471.293,13.28,0.009,192.5
2023-04-11T05:07:03,42.805,6.029,0.008,0.007,0.007,105.0,103.0,103.0,13.4,1505.2,321.9,-0.8,1.8,2471.283,13.28,0.01,48.8
2023-04-11T05:10:03,42.805,6.029,-0.005,0.004,-0.011,104.0,104.0,102.0,13.4,1505.2,332.2,-0.8,1.8,2471.296,13.29,0.006,308.7
2023-04-11T05:13:03,42.805,6.029,0.0,-0.026,-0.029,105.0,104.0,102.0,13.4,1505.2,323.6,-0.8,1.8,2471.304,13.29,0.026,180.0
2023-04-11T05:16:03,42.805,6.029,0.003,-0.014,-0.021,104.0,104.0,103.0,13.3,1505.2,342.2,-0.8,1.8,2471.313,13.29,0.014,167.9
2023-04-11T05:19:03,42.805,6.029,-0.011,-0.009,-0.018,105.0,104.0,102.0,13.4,1505.2,319.6,-0.8,1.8,2471.266,13.29,0.014,230.7
2023-04-11T05:22:03,42.805,6.029,0.004,-0.018,-0.019,103.0,104.0,102.0,13.4,1505.2,317.4,-0.8,1.8,2471.275,13.29,0.018,167.5
2023-04-11T05:25:03,42.805,6.029,0.0,-0.016,-0.019,104.0,104.0,102.0,13.4,1505.2,335.4,-0.8,1.8,2471.265,13.29,0.016,180.0
2023-04-11T05:28:03,42.805,6.029,0.002,-0.018,-0.026,104.0,104.0,102.0,13.3,1505.2,340.9,-0.7,1.8,2471.26,13.29,0.018,173.7
2023-04-11T05:31:03,42.805,6.029,-0.005,-0.016,-0.013,105.0,104.0,102.0,13.3,1505.2,342.5,-0.8,1.8,2471.344,13.29,0.016,197.4
2023-04-11T05:34:03,42.805,6.029,-0.001,-0.013,-0.01,105.0,105.0,104.0,13.4,1505.2,336.9,-0.8,1.9,2471.249,13.29,0.013,184.4
2023-04-11T05:37:03,42.805,6.029,0.0,-0.012,-0.03,104.0,104.0,101.0,13.4,1505.2,334.8,-0.8,1.8,2471.261,13.29,0.012,180.0
2023-04-11T05:40:03,42.805,6.029,-0.025,0.0,0.008,105.0,103.0,102.0,13.4,1505.2,341.9,-0.8,1.8,2471.297,13.29,0.025,270.0
2023-04-11T05:43:03,42.805,6.029,-0.015,-0.003,-0.024,105.0,104.0,102.0,13.4,1505.2,321.6,-0.7,1.8,2471.282,13.29,0.015,258.7
2023-04-11T05:46:03,42.805,6.029,0.011,-0.023,-0.023,105.0,104.0,102.0,13.3,1505.2,332.9,-0.8,1.8,2471.26,13.29,0.025,154.4
2023-04-11T05:49:03,42.805,6.029,0.003,-0.012,0.0,106.0,105.0,101.0,13.3,1505.2,331.4,-0.7,1.9,2471.287,13.29,0.012,166.0
2023-04-11T05:52:03,42.805,6.029,-0.006,-0.037,-0.035,105.0,103.0,103.0,13.4,1505.2,329.2,-0.7,1.8,2471.255,13.29,0.037,189.2
2023-04-11T05:55:03,42.805,6.029,-0.016,-0.01,-0.023,105.0,104.0,103.0,13.3,1505.2,341.5,-0.8,1.8,2471.297,13.29,0.018,238.0
2023-04-11T05:58:03,42.805,6.029,-0.005,-0.013,-0.057,105.0,104.0,101.0,13.4,1505.2,326.7,-0.8,1.8,2471.274,13.29,0.013,201.0
2023-04-11T06:04:03,42.805,6.029,-0.001,0.005,-0.025,104.0,103.0,103.0,13.3,1505.2,330.2,-0.8,1.8,2471.335,13.29,0.005,348.7
2023-04-11T06:07:03,42.805,6.029,-0.001,-0.023,-0.03,106.0,103.0,104.0,13.3,1505.2,331.5,-0.8,1.8,2471.317,13.29,0.023,182.5
2023-04-11T06:10:03,42.805,6.029,0.018,-0.007,0.005,104.0,103.0,103.0,13.4,1505.2,329.3,-0.7,1.8,2471.342,13.29,0.019,111.2
2023-04-11T06:13:03,42.805,6.029,0.002,-0.011,-0.026,106.0,104.0,103.0,13.4,1505.2,344.4,-0.8,1.8,2471.308,13.29,0.011,169.7
2023-04-11T06:16:04,42.805,6.029,-0.014,-0.014,0.005,104.0,103.0,102.0,13.4,1505.2,329.9,-0.8,1.8,2471.296,13.29,0.019,225.0
2023-04-11T06:19:03,42.805,6.029,0.01,-0.008,-0.032,105.0,104.0,102.0,13.4,1505.2,326.8,-0.8,1.8,2471.324,13.29,0.012,128.7
2023-04-11T06:22:03,42.805,6.029,-0.018,-0.016,-0.054,103.0,103.0,102.0,13.4,1505.2,331.1,-0.8,1.8,2471.255,13.29,0.024,228.4
2023-04-11T06:25:03,42.805,6.029,0.002,-0.018,-0.038,104.0,105.0,102.0,13.4,1505.2,321.0,-0.8,1.8,2471.326,13.29,0.018,173.7
2023-04-11T06:28:03,42.805,6.029,0.0,-0.01,-0.02,104.0,103.0,102.0,13.4,1505.2,329.6,-0.8,1.8,2471.286,13.29,0.01,180.0
2023-04-11T06:31:03,42.805,6.029,0.006,-0.027,-0.019,105.0,105.0,102.0,13.3,1505.2,330.4,-0.8,1.8,2471.29,13.29,0.027,167.5
2023-04-11T06:34:03,42.805,6.029,-0.012,-0.01,-0.02,104.0,104.0,103.0,13.4,1505.2,341.9,-0.7,1.8,2471.331,13.29,0.015,230.2
2023-04-11T06:37:03,42.805,6.029,-0.007,-0.008,-0.042,106.0,103.0,102.0,13.4,1505.2,341.5,-0.8,1.8,2471.285,13.29,0.01,221.2
2023-04-11T06:40:03,42.805,6.029,0.018,-0.016,-0.039,103.0,105.0,102.0,13.4,1505.2,324.4,-0.8,1.8,2471.3,13.29,0.024,131.6
2023-04-11T06:43:03,42.805,6.029,-0.01,-0.01,-0.039,104.0,104.0,102.0,13.4,1505.2,324.5,-0.8,1.8,2471.302,13.29,0.014,225.0
2023-04-11T06:46:03,42.805,6.029,-0.004,0.014,-0.045,105.0,104.0,102.0,13.4,1505.2,321.1,-0.7,1.8,2471.28,13.29,0.014,344.1
2023-04-11T06:49:03,42.805,6.029,-0.003,0.002,-0.027,104.0,104.0,105.0,13.3,1505.2,333.8,-0.8,1.8,2471.259,13.29,0.003,303.7
2023-04-11T06:52:03,42.805,6.029,-0.009,0.002,-0.012,104.0,104.0,103.0,13.4,1505.2,336.2,-0.7,1.8,2471.288,13.29,0.009,282.5
2023-04-11T06:55:03,42.805,6.029,-0.01,-0.003,-0.063,103.0,103.0,102.0,13.4,1505.2,328.2,-0.8,1.8,2471.273,13.29,0.01,253.3
2023-04-11T06:58:03,42.805,6.029,-0.004,-0.007,-0.007,104.0,104.0,103.0,13.4,1505.2,318.2,-0.8,1.8,2471.317,13.29,0.008,209.7
2023-04-11T07:04:03,42.805,6.029,-0.011,-0.013,-0.006,103.0,104.0,102.0,13.4,1505.2,334.8,-0.8,1.8,2471.356,13.28,0.017,220.2
2023-04-11T07:07:03,42.805,6.029,-0.013,-0.01,-0.049,104.0,103.0,101.0,13.4,1505.2,338.3,-0.8,1.8,2471.328,13.29,0.016,232.4
2023-04-11T07:10:03,42.805,6.029,0.0,-0.006,-0.007,105.0,103.0,102.0,13.3,1505.2,323.8,-0.8,1.8,2471.345,13.29,0.006,180.0
2023-04-11T07:13:03,42.805,6.029,-0.001,-0.027,-0.048,104.0,105.0,102.0,13.4,1505.2,332.9,-0.8,1.8,2471.392,13.29,0.027,182.1
2023-04-11T07:16:03,42.805,6.029,0.004,0.0,-0.016,104.0,104.0,103.0,13.3,1505.2,336.5,-0.7,1.8,2471.333,13.29,0.004,90.0
2023-04-11T07:19:03,42.805,6.029,-0.004,0.0,-0.007,103.0,104.0,102.0,13.4,1505.2,319.7,-0.8,1.8,2471.325,13.29,0.004,270.0
2023-04-11T07:22:03,42.805,6.029,0.016,0.009,-0.022,104.0,104.0,102.0,13.3,1505.2,321.8,-0.8,1.8,2471.327,13.29,0.018,60.6
2023-04-11T07:25:03,42.805,6.029,-0.01,-0.009,-0.029,104.0,104.0,102.0,13.3,1505.2,324.3,-0.8,1.8,2471.342,13.29,0.013,228.0
2023-04-11T07:28:03,42.805,6.029,0.007,-0.02,-0.008,103.0,104.0,102.0,13.4,1505.2,337.3,-0.8,1.8,2471.291,13.29,0.021,160.7
2023-04-11T07:31:03,42.805,6.029,-0.007,-0.019,-0.057,105.0,104.0,101.0,13.4,1505.2,325.7,-0.8,1.8,2471.283,13.29,0.02,200.2
2023-04-11T07:34:03,42.805,6.029,0.007,-0.013,-0.012,104.0,104.0,102.0,13.4,1505.2,325.3,-0.8,1.8,2471.331,13.29,0.014,151.7
2023-04-11T07:37:03,42.805,6.029,0.003,-0.002,-0.031,103.0,103.0,102.0,13.4,1505.2,326.0,-0.8,1.8,2471.318,13.29,0.003,123.7
2023-04-11T07:40:03,42.805,6.029,-0.004,-0.013,-0.021,104.0,105.0,102.0,13.3,1505.2,334.9,-0.7,1.8,2471.307,13.29,0.013,197.1
2023-04-11T07:43:03,42.805,6.029,0.0,0.014,0.014,105.0,103.0,104.0,13.4,1505.2,337.0,-0.8,1.8,2471.353,13.29,0.014,0.0
2023-04-11T07:46:03,42.805,6.029,-0.018,0.015,-0.006,104.0,103.0,101.0,13.4,1505.2,333.9,-0.7,1.8,2471.324,13.29,0.023,309.8
2023-04-11T07:49:03,42.805,6.029,0.02,-0.025,-0.041,104.0,103.0,104.0,13.4,1505.2,317.6,-0.8,1.8,2471.331,13.29,0.032,141.3
2023-04-11T07:52:03,42.805,6.029,-0.002,-0.013,-0.023,102.0,104.0,102.0,13.4,1505.2,337.8,-0.8,1.8,2471.353,13.29,0.013,188.7
2023-04-11T07:55:03,42.805,6.029,0.003,0.0,-0.001,103.0,103.0,102.0,13.3,1505.2,334.3,-0.7,1.8,2471.329,13.29,0.003,90.0
2023-04-11T07:58:03,42.805,6.029,-0.004,0.012,0.012,105.0,103.0,101.0,13.3,1505.2,340.4,-0.7,1.9,2471.329,13.29,0.012,341.6
2023-04-11T08:04:03,42.805,6.029,0.004,-0.018,-0.033,105.0,104.0,101.0,13.4,1505.2,327.4,-0.8,1.8,2471.375,13.29,0.018,167.5
2023-04-11T08:07:03,42.805,6.029,0.007,-0.013,-0.023,104.0,104.0,101.0,13.3,1505.2,321.7,-0.8,1.8,2471.399,13.29,0.014,151.7
2023-04-11T08:10:03,42.805,6.029,0.025,-0.005,-0.016,104.0,103.0,102.0,13.4,1505.2,336.5,-0.8,1.8,2471.347,13.29,0.025,101.3
2023-04-11T08:13:03,42.805,6.029,0.006,-0.009,-0.001,104.0,103.0,103.0,13.4,1505.2,323.6,-0.8,1.8,2471.384,13.29,0.01,146.3
2023-04-11T08:16:03,42.805,6.029,0.012,-0.007,-0.011,104.0,104.0,103.0,13.4,1505.2,317.9,-0.7,1.8,2471.338,13.29,0.013,120.3
2023-04-11T08:19:03,42.805,6.029,-0.015,-0.009,-0.028,103.0,105.0,101.0,13.3,1505.2,332.6,-0.8,1.8,2471.378,13.29,0.017,239.0
2023-04-11T08:22:03,42.805,6.029,-0.011,-0.033,-0.003,105.0,104.0,102.0,13.4,1505.2,335.3,-0.8,1.8,2471.339,13.29,0.034,198.4
2023-04-11T08:25:03,42.805,6.029,-0.015,0.003,-0.025,104.0,104.0,102.0,13.4,1505.2,339.7,-0.8,1.8,2471.343,13.29,0.015,281.3
2023-04-11T08:28:03,42.805,6.029,0.003,-0.015,-0.003,105.0,102.0,102.0,13.4,1505.2,339.4,-0.8,1.8,2471.341,13.29,0.015,168.7
2023-04-11T08:31:03,42.805,6.029,0.006,0.002,-0.018,105.0,103.0,102.0,13.4,1505.2,317.4,-0.8,1.8,2471.348,13.29,0.006,71.6
2023-04-11T08:34:02,42.805,6.029,0.0,0.015,-0.003,105.0,104.0,103.0,13.4,1505.2,335.0,-0.8,1.8,2471.337,13.29,0.015,0.0
2023-04-11T08:37:02,42.805,6.029,0.001,-0.004,-0.026,105.0,104.0,102.0,13.3,1505.2,330.9,-0.8,1.8,2471.35,13.29,0.004,166.0
2023-04-11T08:40:02,42.805,6.029,0.002,-0.014,-0.031,104.0,103.0,103.0,13.4,1505.2,322.9,-0.8,1.8,2471.39,13.29,0.014,171.9
2023-04-11T08:43:03,42.805,6.029,-0.012,0.01,-0.023,104.0,104.0,103.0,13.4,1505.2,326.0,-0.8,1.8,2471.375,13.29,0.015,309.8
2023-04-11T08:46:02,42.805,6.029,-0.008,-0.027,-0.044,104.0,104.0,103.0,13.3,1505.2,329.0,-0.8,1.8,2471.359,13.29,0.028,196.5
2023-04-11T08:49:02,42.805,6.029,-0.012,-0.014,-0.018,105.0,104.0,101.0,13.4,1505.2,337.0,-0.8,1.8,2471.372,13.29,0.018,220.6
2023-04-11T08:52:02,42.805,6.029,0.0,-0.012,-0.029,104.0,104.0,101.0,13.3,1505.2,330.1,-0.7,1.8,2471.374,13.29,0.012,180.0
2023-04-11T08:55:03,42.805,6.029,0.0,-0.006,-0.019,104.0,103.0,101.0,13.3,1505.2,323.6,-0.7,1.8,2471.367,13.29,0.006,180.0
2023-04-11T08:58:03,42.805,6.029,0.006,-0.02,-0.027,103.0,103.0,102.0,13.4,1505.2,322.6,-0.7,1.8,2471.354,13.29,0.02,163.3
2023-04-11T09:04:02,42.805,6.029,0.024,-0.015,-0.04,104.0,104.0,102.0,13.4,1505.2,332.5,-0.8,1.8,2471.445,13.29,0.028,122.0
2023-04-11T09:07:02,42.805,6.029,-0.014,0.006,0.0,104.0,103.0,101.0,13.4,1505.2,337.5,-0.8,1.8,2471.436,13.29,0.015,293.2
2023-04-11T09:10:03,42.805,6.029,0.006,-0.031,-0.024,105.0,103.0,101.0,13.4,1505.2,317.3,-0.7,1.8,2471.413,13.29,0.031,169.0
2023-04-11T09:13:03,42.805,6.029,0.006,-0.015,-0.019,103.0,103.0,102.0,13.4,1505.2,334.3,-0.8,1.8,2471.405,13.29,0.016,158.2
2023-04-11T09:16:03,42.805,6.029,0.012,-0.002,-0.014,104.0,102.0,103.0,13.4,1505.2,331.0,-0.7,1.8,2471.431,13.29,0.012,99.5
2023-04-11T09:19:03,42.805,6.029,0.01,-0.011,-0.028,103.0,104.0,101.0,13.4,1505.2,336.3,-0.8,1.8,2471.397,13.29,0.014,137.7
2023-04-11T09:22:02,42.805,6.029,-0.008,-0.009,-0.051,103.0,102.0,102.0,13.4,1505.2,319.8,-0.8,1.8,2471.377,13.29,0.012,221.6
2023-04-11T09:25:03,42.805,6.029,0.0,0.005,-0.011,104.0,103.0,102.0,13.4,1505.2,338.7,-0.7,1.9,2471.398,13.29,0.005,0.0
2023-04-11T09:28:03,42.805,6.029,0.0,-0.006,-0.003,104.0,104.0,103.0,13.3,1505.2,322.5,-0.8,1.9,2471.397,13.29,0.006,180.0
2023-04-11T09:31:03,42.805,6.029,-0.015,-0.013,-0.058,103.0,103.0,103.0,13.4,1505.2,339.4,-0.8,1.8,2471.406,13.29,0.019,229.1
2023-04-11T09:34:03,42.805,6.029,-0.011,-0.02,-0.042,103.0,103.0,102.0,13.4,1505.2,324.4,-0.8,1.8,2471.38,13.29,0.022,208.8
2023-04-11T09:37:02,42.805,6.029,0.016,-0.006,-0.033,105.0,103.0,102.0,13.4,1505.2,320.7,-0.8,1.8,2471.35,13.29,0.017,110.6
2023-04-11T09:40:03,42.805,6.029,-0.002,-0.022,-0.03,104.0,103.0,101.0,13.4,1505.2,329.6,-0.8,1.8,2471.353,13.29,0.022,185.2
2023-04-11T09:43:03,42.805,6.029,-0.023,0.0,-0.04,103.0,104.0,102.0,13.3,1505.2,327.9,-0.8,1.8,2471.376,13.29,0.023,270.0
2023-04-11T09:46:03,42.805,6.029,-0.01,0.002,-0.017,104.0,104.0,101.0,13.4,1505.2,323.1,-0.8,1.8,2471.401,13.29,0.01,281.3
2023-04-11T09:49:03,42.805,6.029,-0.017,-0.014,-0.039,104.0,104.0,102.0,13.4,1505.2,319.6,-0.7,1.8,2471.394,13.29,0.022,230.5
2023-04-11T09:52:03,42.805,6.029,-0.031,0.0,-0.035,105.0,103.0,101.0,13.4,1505.2,331.9,-0.7,1.8,2471.372,13.29,0.03,270.0
2023-04-11T09:55:03,42.805,6.029,0.006,-0.005,-0.03,103.0,103.0,102.0,13.4,1505.2,342.2,-0.8,1.8,2471.396,13.29,0.007,129.8